Location: Oak Glen
(34.0495°N, 116.9470°E)
Time: 06:03:05
(UTC-07:00)

ISS - Pass Details

Date: 14 October 2017
Orbit: 401 x 408 km, 51.6° (Epoch: 19 October)

Event Time Altitude Azimuth Distance (km) Brightness Sun altitude
Rises 04:07:05 0° 316° (NW) 2,319 0.7 -18.9°
Reaches altitude 10° 04:09:11 10° 320° (NW) 1,458 -0.4 -19.3°
Enters shadow 04:12:01 55° 1° (N) 490 -3.5 -19.9°
